Vorticity
11 13 9 3 4 4 11 24 5 13 -0 1 15 9 16 1 -3 -1 9 18 7 4 3 3 1 6 2 3 4 8 6 -2 8 7 3 8 13 6 2 4 1 4 5 5
4 20 2 1 7 4 7 20 5 -6 9 -3 7 11 3 3 8 -5 11 10 9 10 7 9 1 7 6 6 6 5 9 5 5 5 7 8 9 8 4 12 1 5 3 1
4 11 0 2 5 5 9 16 13 -14 9 -6 -6 1 -2 1 5 7 10 10 9 6 11 8 9 7 9 7 6 6 5 3 6 8 7 6 5 7 12 15 15 11 10 8
5 3 8 3 11 4 8 13 27 -7 10 0 -7 2 7 7 -2 10 -9 20 10 9 6 7 7 10 11 6 6 3 3 2 5 5 5 2 4 2 5 4 7 9 9 7
9 9 8 7 7 3 8 15 20 17 10 18 11 -5 -5 12 4 8 2 1 11 11 10 7 8 7 6 6 6 3 3 3 5 5 4 7 -3 8 4 -4 -4 11 8 4
3 4 1 8 3 5 5 12 10 1 5 12 22 4 -0 11 11 -16 29 6 2 9 2 0 6 5 8 10 6 3 3 5 5 4 4 2 10 12 -9 16 16 36 16 6
9 6 11 10 9 7 5 7 10 9 10 20 8 7 17 -2 0 -4 1 3 6 6 8 10 4 11 3 4 8 7 6 5 1 3 3 2 2 -13 13 4 10 19 35 25
5 7 12 17 14 10 6 7 3 3 10 9 9 2 0 18 4 -4 12 5 5 -2 0 -2 2 2 14 1 7 2 6 6 9 9 9 9 9 3 4 9 3 -0 -5 48
9 9 11 8 15 3 7 7 11 2 8 15 -5 26 4 -6 10 2 2 -2 1 2 8 3 9 16 9 8 9 9 7 11 10 6 13 12 9 11 4 1 2 2 3 7
12 8 10 3 9 6 12 5 3 5 0 5 13 -7 1 3 -8 6 13 11 15 3 1 5 1 5 12 -21 9 7 -3 -1 -1 6 1 3 6 7 1 -1 6 -0 3 5
14 6 11 5 5 0 6 7 4 2 2 1 1 10 -3 6 -1 5 -7 18 -13 5 13 16 6 10 6 13 31 -9 15 27 13 -12 3 12 2 4 11 2 9 -1 4 8
20 14 7 6 4 16 10 5 11 3 3 8 -1 9 -7 2 8 8 8 -2 8 6 13 7 9 11 11 11 15 7 2 10 10 11 8 7 8 13 22 -22 1 7 5 8
16 11 8 3 9 -2 8 2 -6 8 17 -2 8 0 14 2 27 -8 4 9 3 7 0 -3 17 10 7 4 9 11 8 5 16 6 7 5 -4 6 5 1 6 4 11 4
3 18 6 10 18 13 6 1 4 6 10 17 -1 1 9 12 -18 -0 17 -3 -10 11 12 -7 3 12 12 8 8 7 6 6 12 1 -6 5 4 1 7 -5 10 12 1 4
5 -3 10 6 11 11 -5 12 5 7 30 10 4 10 22 7 18 17 10 -18 9 29 30 -4 21 6 17 10 7 6 6 6 3 6 7 10 10 19 -0 6 10 3 7 8
-0 4 8 5 4 13 0 -10 10 -4 -4 10 9 40 13 9 12 12 19 24 11 10 -32 5 1 4 11 14 9 7 8 8 8 9 10 11 9 11 10 9 2 10 11 11
2 9 -1 3 12 15 -9 25 -3 -5 -0 1 13 6 28 12 17 0 5 0 6 8 26 -2 12 4 7 8 8 10 11 8 6 6 8 8 9 17 13 11 13 10 8 7
57 -11 19 11 8 0 -2 12 21 4 -1 3 8 13 -1 4 5 15 8 4 6 13 5 5 12 6 4 8 4 13 11 7 8 8 7 8 11 9 11 10 9 7 6 5
7 -3 38 14 11 14 7 7 17 10 -2 -9 2 -0 -8 15 -2 -2 1 8 9 -9 10 0 3 8 10 12 12 14 18 10 9 8 9 10 9 8 7 9 7 5 4 2
-11 -33 72 3 -2 7 8 11 17 3 2 10 6 6 -7 27 25 11 6 11 2 8 17 8 3 7 9 9 12 12 12 12 10 9 9 8 8 6 9 8 5 4 2 -0
-4 -33 61 10 2 8 15 15 15 6 13 12 23 19 15 8 1 12 10 10 12 -2 8 2 5 10 9 11 11 14 12 11 10 11 10 9 6 9 7 5 4 3 2 0
-10 -17 26 17 -5 22 2 14 25 20 23 17 13 17 -1 14 13 8 1 3 1 0 7 2 6 9 11 10 10 12 11 12 12 11 9 6 9 7 5 4 3 2 1 0
19 13 -10 -4 26 -1 14 -5 -15 13 13 6 -5 3 8 -2 8 14 14 8 16 11 8 1 3 7 9 9 10 10 10 11 10 6 8 10 6 4 3 3 3 2 1 3
21 22 25 -7 19 35 12 6 10 15 9 28 -4 16 19 5 15 -8 10 14 2 -1 4 5 7 8 9 9 10 10 10 8 9 11 8 5 4 3 3 2 1 1 1 1
13 19 14 -10 14 -8 35 3 8 -16 16 7 12 -6 -2 -9 12 13 8 13 17 12 9 4 7 7 9 11 9 9 8 8 7 5 5 4 4 4 3 2 2 3 5 2
20 7 16 10 11 31 4 10 20 27 61 34 -7 3 6 11 8 -9 6 6 8 13 17 11 8 7 7 8 8 6 6 6 5 6 6 4 4 3 3 3 4 4 7 12
Height
5753 5756 5756 5757 5757 5757 5754 5752 5754 5756 5756 5753 5752 5754 5756 5754 5751 5751 5748 5748 5745 5745 5744 5743 5742 5741 5741 5740 5740 5741 5740 5742 5744 5747 5748 5748 5752 5758 5759 5763 5765 5770 5773 5774
5749 5753 5750 5752 5753 5753 5750 5748 5752 5752 5748 5751 5752 5748 5750 5753 5753 5751 5749 5746 5746 5748 5746 5746 5744 5744 5743 5743 5743 5744 5744 5746 5747 5748 5749 5752 5755 5756 5761 5765 5769 5769 5770 5770
5743 5748 5744 5746 5747 5748 5748 5746 5749 5750 5747 5750 5749 5748 5745 5749 5751 5750 5749 5747 5746 5746 5746 5745 5745 5744 5745 5745 5745 5745 5745 5745 5746 5748 5751 5754 5757 5758 5761 5764 5766 5768 5768 5769
5735 5739 5739 5741 5742 5742 5744 5743 5743 5743 5745 5746 5747 5747 5743 5742 5745 5747 5748 5748 5748 5747 5746 5745 5744 5745 5745 5745 5747 5747 5747 5747 5747 5749 5751 5752 5753 5754 5757 5759 5761 5762 5763 5765
5734 5733 5733 5735 5738 5738 5741 5740 5740 5741 5743 5743 5745 5744 5741 5739 5739 5743 5746 5747 5748 5749 5747 5746 5746 5746 5745 5746 5746 5746 5747 5747 5749 5751 5751 5752 5752 5753 5754 5756 5757 5758 5760 5761
5723 5725 5726 5731 5733 5734 5736 5736 5737 5738 5738 5737 5743 5741 5740 5737 5738 5738 5739 5744 5740 5745 5747 5746 5744 5746 5745 5745 5746 5746 5746 5746 5747 5748 5749 5750 5751 5754 5755 5755 5755 5753 5753 5754
5717 5720 5720 5724 5726 5730 5730 5731 5732 5734 5733 5735 5734 5736 5739 5739 5739 5735 5742 5741 5740 5738 5744 5745 5745 5743 5742 5743 5743 5743 5745 5745 5745 5745 5746 5747 5747 5748 5747 5748 5746 5746 5746 5748
5707 5713 5716 5720 5721 5725 5726 5728 5728 5729 5730 5731 5732 5733 5736 5735 5737 5736 5735 5735 5736 5736 5735 5739 5741 5742 5741 5740 5741 5741 5741 5743 5744 5743 5743 5743 5743 5743 5743 5744 5744 5745 5746 5744
5701 5705 5711 5712 5715 5718 5722 5721 5726 5724 5724 5727 5730 5730 5731 5730 5733 5733 5732 5730 5729 5733 5733 5730 5732 5736 5736 5737 5737 5737 5736 5737 5740 5742 5742 5741 5739 5739 5739 5739 5741 5741 5740 5739
5694 5697 5702 5706 5709 5712 5714 5720 5718 5718 5718 5722 5726 5725 5727 5727 5726 5727 5729 5731 5731 5730 5729 5729 5726 5727 5728 5731 5735 5731 5729 5729 5730 5732 5735 5734 5733 5733 5732 5733 5734 5733 5733 5732
5687 5689 5694 5697 5698 5703 5708 5709 5713 5713 5714 5716 5721 5722 5721 5723 5725 5725 5726 5727 5728 5729 5726 5724 5723 5723 5721 5722 5727 5730 5729 5725 5723 5717 5725 5727 5727 5727 5725 5726 5726 5727 5726 5725
5679 5680 5682 5688 5691 5697 5701 5704 5708 5708 5712 5710 5713 5717 5718 5721 5722 5722 5723 5720 5720 5724 5725 5721 5721 5719 5716 5716 5720 5720 5721 5719 5721 5719 5720 5720 5720 5716 5714 5715 5717 5720 5719 5718
5670 5669 5673 5681 5685 5686 5689 5694 5700 5702 5704 5704 5706 5712 5714 5711 5714 5713 5713 5715 5714 5717 5718 5720 5718 5715 5711 5706 5704 5705 5705 5710 5714 5713 5712 5713 5711 5701 5707 5708 5710 5712 5712 5710
5654 5660 5664 5669 5679 5682 5685 5689 5693 5694 5693 5697 5696 5703 5710 5708 5708 5709 5708 5710 5710 5708 5711 5714 5716 5716 5715 5712 5708 5704 5706 5707 5706 5706 5706 5707 5706 5706 5704 5704 5705 5703 5702 5701
5640 5646 5654 5660 5668 5674 5677 5681 5685 5685 5689 5689 5695 5694 5700 5702 5704 5703 5702 5704 5704 5701 5701 5703 5705 5708 5709 5708 5704 5701 5701 5701 5700 5702 5700 5701 5699 5699 5699 5699 5697 5695 5693 5692
5634 5640 5642 5648 5655 5663 5667 5670 5674 5678 5680 5681 5685 5686 5691 5695 5694 5694 5695 5693 5694 5697 5698 5697 5696 5697 5701 5702 5700 5698 5696 5695 5694 5695 5694 5694 5693 5691 5690 5688 5687 5686 5685 5684
5628 5635 5636 5640 5649 5655 5654 5659 5664 5668 5672 5675 5676 5681 5685 5685 5685 5685 5687 5686 5686 5688 5689 5692 5688 5688 5690 5692 5691 5690 5689 5689 5687 5687 5687 5686 5685 5684 5683 5681 5679 5677 5674 5670
5620 5625 5628 5634 5639 5639 5649 5653 5657 5660 5667 5668 5669 5672 5674 5677 5679 5678 5678 5677 5682 5680 5681 5681 5682 5680 5681 5682 5681 5678 5677 5677 5678 5676 5675 5673 5672 5671 5670 5668 5667 5665 5664 5661
5607 5613 5617 5621 5624 5633 5637 5642 5651 5653 5657 5661 5661 5665 5668 5669 5671 5670 5670 5670 5670 5672 5673 5674 5673 5672 5671 5671 5671 5668 5667 5666 5666 5666 5665 5664 5663 5661 5660 5659 5658 5657 5654 5651
5599 5604 5606 5608 5613 5619 5629 5635 5645 5646 5644 5655 5656 5659 5658 5661 5659 5661 5661 5663 5664 5665 5666 5666 5665 5664 5663 5661 5660 5659 5657 5657 5656 5656 5655 5654 5653 5652 5650 5649 5647 5645 5642 5640
5586 5588 5594 5598 5606 5614 5617 5628 5633 5634 5644 5651 5649 5649 5648 5652 5650 5651 5652 5653 5655 5655 5656 5656 5655 5654 5653 5652 5651 5649 5647 5646 5645 5645 5644 5644 5642 5641 5640 5638 5636 5633 5631 5627
5577 5581 5587 5594 5599 5606 5612 5618 5623 5625 5631 5634 5636 5640 5640 5639 5639 5640 5642 5644 5646 5646 5646 5647 5646 5645 5644 5642 5641 5640 5638 5636 5634 5634 5633 5631 5630 5629 5628 5626 5624 5621 5617 5612
5572 5581 5587 5589 5596 5599 5604 5609 5612 5615 5618 5621 5622 5626 5630 5628 5630 5633 5634 5633 5634 5636 5636 5637 5636 5635 5633 5632 5631 5631 5629 5628 5626 5624 5623 5622 5621 5619 5616 5614 5612 5607 5602 5596
5567 5570 5576 5584 5592 5591 5597 5598 5601 5605 5609 5616 5614 5620 5620 5620 5623 5624 5624 5627 5626 5626 5625 5625 5625 5624 5623 5622 5622 5620 5619 5617 5616 5615 5614 5613 5610 5607 5605 5601 5597 5592 5586 5581
5563 5565 5573 5577 5580 5581 5584 5590 5594 5597 5598 5602 5607 5611 5611 5611 5613 5614 5616 5616 5615 5614 5614 5614 5614 5613 5612 5612 5610 5609 5606 5605 5604 5603 5602 5599 5597 5594 5591 5586 5581 5576 5571 5565
5558 5563 5564 5569 5573 5572 5577 5581 5583 5586 5590 5592 5596 5599 5600 5600 5601 5606 5606 5606 5604 5603 5602 5602 5602 5600 5599 5598 5597 5595 5594 5593 5592 5590 5586 5583 5581 5578 5574 5568 5562 5558 5552 5546